Regional Weather Roundup
Issued by NWS

Home | Current Version | Previous Version | Graphics & Text | Print | Product List | Glossary Off
Versions: 1 2 3 4 5 6 7 8 9 10 11 12 13 14 15 16 17 18 19 20 21 22 23 24 25 26 27 28 29 30 31 32 33 34 35 36 37 38 39 40 41 42 43 44 45 46 47 48 49 50

000
ASUS43 KDMX 270701
RWRIA

WEATHER ROUNDUP FOR IOWA
NATIONAL WEATHER SERVICE DES MOINES IA
200 AM CDT SAT MAY 27 2017

NOTE: "FAIR" INDICATES FEW OR NO CLOUDS BELOW 12,000 FEET WITH NO
SIGNIFICANT WEATHER AND/OR OBSTRUCTIONS TO VISIBILITY.

* - THESE STATIONS ARE NOT NWS STATIONS...THUS NOT UNDER NWS
QUALITY CONTROL.  THEY ALSO DO NOT REPORT WEATHER SUCH
AS PRECIPITATION OR FOG.

IAZ001>003-012>014-020>022-031>034-043>046-270800-
   NORTHWEST IOWA

CITY           SKY/WX    TMP DP  RH WIND       PRES   REMARKS
CARROLL *      CLEAR     61  46  59 N5        29.89R
CHEROKEE *     CLOUDY    50  47  90 CALM      29.90R
DENISON *      PTCLDY    54  48  82 CALM      29.92R
LE MARS *      CLOUDY    52  48  87 CALM      29.92R
ORANGE CITY *  CLOUDY    61  45  55 N6        29.91R
SHELDON *      CLEAR     52  43  71 NW5       29.90R
SIOUX CITY     PTCLDY    53  47  79 W6        29.92R
SPENCER        CLEAR     51  46  83 W6        29.91R
STORM LAKE *   CLOUDY    59  41  51 NW5       29.90R
$$

IAZ055>058-069>071-079>083-090>094-270800-
   SOUTHWEST IOWA

CITY           SKY/WX    TMP DP  RH WIND       PRES   REMARKS
ATLANTIC *     CLOUDY    57  50  77 N3        29.89R
AUDUBON *      CLOUDY    54  46  76 CALM      29.90S
CLARINDA *     CLOUDY    63  55  77 NE5       29.89R
COUNCIL BLFS * CLOUDY    59  52  77 N9        29.89R
CRESTON *      CLOUDY    64  50  59 N7        29.89S
HARLAN  *      PTCLDY    57  48  72 CALM      29.93R
LAMONI         MOCLDY    65  62  90 CALM      29.87R
RED OAK *      CLOUDY    61  52  72 CALM      29.88R
SHENANDOAH *   CLOUDY    64  54  68 CALM      29.88R
$$

IAZ047>049-059>061-072>074-084-270800-
   CENTRAL IOWA

CITY           SKY/WX    TMP DP  RH WIND       PRES   REMARKS
AMES           FOG       56  56 100 CALM      29.87S VSB 1/4
ANKENY *       CLOUDY    59  57  94 CALM      29.88R
BOONE *        PTCLDY    59  52  77 N6        29.87S
CHARITON *     MOCLDY    61  61 100 CALM      29.86R
DES MOINES     PTCLDY    65  61  87 NE3       29.86R
GRINNELL*      CLEAR     59  56  92 CALM      29.88R
KNOXVILLE *    CLOUDY    61  59  94 SE5       29.85R
MARSHALLTOWN   CLEAR     56  56 100 CALM      29.87R FOG
NEWTON *       CLEAR     59  57  94 SE5       29.86R
PELLA *        CLOUDY    60  59  96 SE5       29.87S
PERRY *          N/A     60  47  61 N6        29.88R
$$

IAZ004>006-015-016-023>025-035-036-270800-
   NORTH CENTRAL IOWA

CITY           SKY/WX    TMP DP  RH WIND       PRES   REMARKS
ALGONA *       CLEAR     59  46  63 N3        29.89S
CLARION *      CLEAR     59  50  72 N3        29.89R
ESTHERVILLE    CLEAR     53  47  79 NW6       29.89R
FORT DODGE *   CLEAR     55  46  71 N3        29.89S
MASON CITY     CLEAR     54  48  80 NW7       29.89S
FOREST CITY *    N/A     50  36  57 CALM      29.89R
WEBSTER CITY * CLEAR     59  48  67 N6        29.86S
$$

IAZ007>011-017>019-026>030-037>042-050>054-066-270800-
   NORTHEAST IOWA

CITY           SKY/WX    TMP DP  RH WIND       PRES   REMARKS
CEDAR RAPIDS   FOG       55  55 100 SE5       29.86F VSB 1/4
CHARLES CITY * CLEAR     57  57 100 S6        29.88F
CLINTON *      CLOUDY    58  57  97 E6        29.88F
DECORAH *      CLOUDY    57  55  94 CALM      29.89R
DUBUQUE        CLEAR     55  53  93 S3        29.88S
MONTICELLO *   FOG       54  54 100 CALM      29.88S VSB 1/2
OELWEIN *      FOG       55  55 100 CALM      29.89S VSB<1/4
WATERLOO       PTCLDY    53  52  96 CALM      29.87S FOG
$$

IAZ064-065-067-068-078-270800-
   EAST CENTRAL IOWA

CITY           SKY/WX    TMP DP  RH WIND       PRES   REMARKS
DAVENPORT      CLOUDY    58  56  93 E8        29.87F
IOWA CITY      FOG       56  54  93 CALM      29.87F VSB 1/2
MT. PLEASANT * FOG       58  58 100 NE3       29.86F VSB 1/2
MUSCATINE *    FOG       55  54  94 CALM      29.87F VSB<1/4
QUAD CITIES    CLOUDY    60  56  86 E7        29.87F FOG
$$

IAZ062-063-075>077-085>089-095>099-270800-
   SOUTHEAST IOWA

CITY           SKY/WX    TMP DP  RH WIND       PRES   REMARKS
BURLINGTON     CLEAR     60  59  96 NE3       29.86F FOG
FAIRFIELD *    FOG       57  57 100 E5        29.85F VSB 3/4
FORT MADISON *   N/A     57  57 100 CALM      29.87F FOG
KEOKUK *       CLEAR     57  57 100 CALM      29.85F
OSKALOOSA *      N/A     59  57  94 SE3       29.86F
OTTUMWA        PTCLDY    59  59 100 E5        29.85F
WASHINGTON *   FOG       55  55 100 CALM      29.88S VSB<1/4
$$

ABBREVIATIONS USED IN REMARKS
   TC - TEMPERATURES IN CELSIUS
  WCI - WIND CHILL INDEX
   HX - HEAT INDEX
  VSB - VISIBILITY
$$





USA.gov is the U.S. government's official web portal to all federal, state and local government web resources and services.